Terug naar catalogus

STARLINK-3181

ActiefCommunicatieVLEO
NORAD 51461·PAYLOAD·🇺🇸 United States

Gelanceerd Feb 3, 2022 vanaf Cape Canaveral Space Force Station

Loading…

Volgende Passages (komende 24 uur)

TLE

VersSource: CelesTrak SupGP

Epoch: Sep 15, 2026, 01:35 UTC

1 51461C 22010F   26258.06645833  .00010846  00000+0  31022-3 0  2587
2 51461  53.1573 140.8967 0001307  78.5191  57.0376 15.35402343    19

Volg STARLINK-3181 in realtime met AllMySat

Download on the App Store